Dauntless Aviation
Airports South America Uruguay

Hospital Policial

Montevideo, URUGUAY

Airport Info
Suggest Updated Information for this Airport

Location

Latitude / Longitude: 34°52'4"S / 56°9'6"W
  34°52.068'S / 56°9.114'W
  -34.8678 / -56.1519
Satellite photo at:
Airport distance calculator
From:
Weather Reports

METAR

SUMU
8.1nm NE
SUMU 122200Z 14009KT CAVOK 30/21 Q1005 NOSIG

TAF

SUAA
7.8nm NW
SUAA 121720Z 1218/1318 34010KT CAVOK TX30/1318Z TN22/1310Z BECMG 1222/1302 03018KT TEMPO 1308/1318 31015G25KT 7000 TSRA BKN020 FEW040CB OVC070
SUMU
8.1nm NE
SUMU 121720Z 1218/1318 30010KT CAVOK TX29/1318Z TN21/1310Z BECMG 1222/1302 03020KT TEMPO 1309/1318 32015G25KT 7000 TSRA BKN020 FEW040CB OVC070
Safelog

 

Dauntless Aviation

© 2007-2016 Dauntless Aviation, all rights reserved
Information provided via PilotNav comes from a variety of official and unofficial data sources. As errors are possible, do not use PilotNav for primary flight planning purposes. Verify any information that you receive via PilotNav with current and canonical charts and other official documents. The material in this database is subject to database copyrights held by Dauntless Aviation and may not be copied without the express permission of Dauntless Aviation - licenses for use of part of all of this data are available for purchase; enquire via the Dauntless Aviation helpdesk. A number of mechanisms and markers exist in the database to protect against and identify infringement / copyright. Automated queries against this website are stictly prohibited, and all activity is logged and analyzed.